Location: Boiro
(42.6475°N, 8.8834°W)
Time: 18:38:45
(UTC+01:00)

Tiros 1 despin weight - Pass Details

Date: 01 December 2021
Orbit: 592 x 641 km, 48.2° (Epoch: 20 January)

Event Time Altitude Azimuth Distance (km) Brightness Sun altitude
Rises 17:11:50 0° 264° (W) 2,823 ? 7.0°
Reaches altitude 10° 17:14:11 10° 270° (W) 1,920 ? 6.6°
Maximum altitude 17:18:27 49° 346° (NNW) 765 ? 6.0°
Drops below altitude 10° 17:22:44 10° 62° (ENE) 1,925 ? 5.4°
Sets 17:25:06 0° 68° (ENE) 2,831 ? 5.0°
